Tracking 30703 objects as of 13-Jun-2025
HD Live streaming from Space Station
objects crossing your sky now

CZ-3B DEB

Track CZ-3B DEB now!


NORAD ID: 40185
Int'l Code: 2011-077J
Perigee: 499.2 km
Apogee: 41,301.6 km
Inclination: 26.0 °
Period: 747.0 minutes
Semi major axis: 27271 km
RCS: Unknown
Launch date: December 19, 2011
Source: People's Republic of China (PRC)
Launch site: Xichang Space Center, China (XSC)

Note: This is SATELLITE DEBRIS
Your satellite tracking list
Your tracking list is empty




NASA's NSSDC Master Catalog

Two Line Element Set (TLE):
1 40185U 11077J   25161.94790813  .00000730  00000-0  67708-2 0  9990
2 40185  26.0029 347.1828 7480809  77.9298 350.1018  1.92771305 84285
Source of the keplerian elements: AFSPC